Overview Statistics Trail Chart Weather Telemetry Raw packets
 

This is the latest recevied weather packets stored in our database for station/object K1BES. If no packets are shown the sender has not sent any weather packets the latest 10 day(s).

<< 50 51 52 53 54 55 56 >>
Time Temp. Humidity Pressure Rain* Wind** Luminosity Snow
1788306221 25.56° C 95% 1017.9 hPa 0 mm - 2 W/m² -
1788305913 25.56° C 95% 1018.2 hPa 0 mm - 4 W/m² -
1788305609 25.56° C 95% 1018.2 hPa 0 mm - 6 W/m² -
1788305304 25.56° C 95% 1018 hPa 0 mm - 9 W/m² -
1788304999 25.56° C 95% 1017.8 hPa 0 mm - 10 W/m² -
1788304695 25.56° C 95% 1017.9 hPa 0 mm - 12 W/m² -
1788304391 25.56° C 95% 1018 hPa 0 mm - 17 W/m² -
1788304088 25.56° C 95% 1018 hPa 0 mm - 21 W/m² -
1788303786 25.56° C 95% 1017.7 hPa 0 mm - 30 W/m² -
1788303482 25.56° C 95% 1017.5 hPa 0 mm - 33 W/m² -
1788303182 25.56° C 95% 1017.6 hPa 0 mm - 35 W/m² -
1788302877 25° C 95% 1017.5 hPa 0 mm - 37 W/m² -
1788302573 25° C 95% 1017.3 hPa 0 mm - 36 W/m² -
1788302270 25° C 95% 1017.3 hPa 0 mm - 33 W/m² -
1788301970 25° C 95% 1017.3 hPa 0 mm - 35 W/m² -
1788301666 25° C 95% 1017.1 hPa 0 mm - 42 W/m² -
1788301362 25° C 95% 1017.2 hPa 0 mm - 49 W/m² -
1788301058 25° C 95% 1017 hPa 0 mm - 55 W/m² -
1788300754 25° C 95% 1017.1 hPa 0 mm - 60 W/m² -
1788300453 25° C 95% 1017.2 hPa 0 mm - 65 W/m² -
1788300152 25° C 95% 1017.3 hPa 0 mm - 69 W/m² -
1788299851 25° C 94% 1017.2 hPa 0 mm - 77 W/m² -
1788299546 25° C 94% 1017.5 hPa 0 mm - 83 W/m² -
1788299244 25° C 94% 1017.7 hPa 1.78 mm - 77 W/m² -
1788298944 25.56° C 94% 1017.6 hPa 1.78 mm - 72 W/m² -

* Rain latest hour (hover to see other rain measurements)
** Current wind speed in m/s (hover to see current wind gust speed)